| time (UTC) | temp F | wind direction | speed MPH | gust MPH | rain 1hr in | rain 24hr in | rain mn in | humidity % | barometer mb |
| 20260506190008 | 44 | 292 | 0.0 | 0.0 | 0.00 | 0.15 | 0.10 | 90 | 1008.9 |
| 20260506184505 | 44 | 292 | 0.0 | 1.0 | 0.00 | 0.22 | 0.10 | 90 | 1008.6 |
| 20260506183005 | 44 | 273 | 0.0 | 0.0 | 0.00 | 0.22 | 0.10 | 89 | 1008.4 |
| 20260506181506 | 45 | 278 | 0.0 | 0.0 | 0.00 | 0.22 | 0.10 | 88 | 1008.0 |
| 20260506180007 | 45 | 255 | 0.0 | 0.0 | 0.00 | 0.22 | 0.10 | 87 | 1008.1 |
| 20260506174503 | 46 | 238 | 0.0 | 0.0 | 0.00 | 0.23 | 0.10 | 86 | 1008.1 |
| 20260506173003 | 47 | 251 | 0.0 | 0.0 | 0.00 | 0.23 | 0.10 | 85 | 1007.9 |
| 20260506171505 | 48 | 261 | 0.0 | 8.0 | 0.00 | 0.23 | 0.10 | 83 | 1007.9 |
| 20260506170002 | 48 | 247 | 0.0 | 0.0 | 0.00 | 0.23 | 0.10 | 83 | 1007.8 |
| 20260506164601 | 49 | 217 | 1.0 | 9.0 | 0.00 | 0.23 | 0.10 | 80 | 1007.5 |
| 20260506163104 | 51 | 188 | 0.0 | 0.0 | 0.00 | 0.23 | 0.10 | 77 | 1007.3 |
| 20260506161606 | 49 | 121 | 0.0 | 0.0 | 0.00 | 0.23 | 0.10 | 83 | 1007.3 |
| 20260506160100 | 48 | 121 | 0.0 | 0.0 | 0.01 | 0.23 | 0.10 | 84 | 1007.2 |
| 20260506154559 | 47 | 120 | 0.0 | 0.0 | 0.02 | 0.23 | 0.10 | 87 | 1007.0 |
| 20260506153058 | 46 | 120 | 0.0 | 0.0 | 0.06 | 0.23 | 0.10 | 87 | 1007.5 |
| 20260506151608 | 46 | 120 | 0.0 | 0.0 | 0.08 | 0.23 | 0.10 | 89 | 1007.6 |
| 20260506150057 | 45 | 120 | 0.0 | 0.0 | 0.07 | 0.22 | 0.09 | 88 | 1007.8 |
| 20260506144606 | 45 | 184 | 0.0 | 0.0 | 0.05 | 0.20 | 0.07 | 88 | 1007.9 |
| 20260506143058 | 46 | 184 | 0.0 | 0.0 | 0.02 | 0.17 | 0.05 | 85 | 1007.7 |
| 20260506141557 | 46 | 181 | 0.0 | 6.0 | 0.02 | 0.15 | 0.02 | 82 | 1007.5 |
| 20260506140105 | 47 | 231 | 1.0 | 8.0 | 0.02 | 0.15 | 0.02 | 80 | 1007.0 |
| 20260506134554 | 47 | 175 | 1.0 | 9.0 | 0.02 | 0.15 | 0.02 | 81 | 1006.5 |
| 20260506133053 | 49 | 268 | 1.0 | 6.0 | 0.02 | 0.15 | 0.02 | 79 | 1006.1 |
| 20260506131555 | 53 | 221 | 0.0 | 6.0 | 0.00 | 0.13 | 0.01 | 78 | 1005.0 |
| 20260506130110 | 54 | 180 | 1.0 | 3.0 | 0.00 | 0.13 | 0.01 | 75 | 1004.6 |
| 20260506124552 | 55 | 159 | 0.0 | 4.0 | 0.00 | 0.13 | 0.01 | 74 | 1004.6 |
| 20260506123051 | 56 | 254 | 0.0 | 0.0 | 0.00 | 0.13 | 0.01 | 74 | 1004.4 |
| 20260506121551 | 55 | 241 | 0.0 | 6.0 | 0.00 | 0.13 | 0.01 | 78 | 1004.2 |
| 20260506120048 | 54 | 217 | 0.0 | 0.0 | 0.00 | 0.13 | 0.01 | 80 | 1004.2 |
| 20260506114548 | 53 | 205 | 0.0 | 0.0 | 0.00 | 0.13 | 0.01 | 77 | 1004.4 |
| 20260506113047 | 53 | 231 | 0.0 | 0.0 | 0.00 | 0.13 | 0.01 | 77 | 1004.4 |
| 20260506111549 | 54 | 232 | 0.0 | 0.0 | 0.00 | 0.13 | 0.01 | 76 | 1004.4 |
| 20260506110053 | 55 | 147 | 0.0 | 2.0 | 0.00 | 0.13 | 0.01 | 69 | 1004.3 |
| 20260506104548 | 55 | 147 | 0.0 | 0.0 | 0.00 | 0.13 | 0.01 | 68 | 1004.1 |
| 20260506103048 | 56 | 79 | 1.0 | 7.0 | 0.00 | 0.13 | 0.01 | 68 | 1004.3 |
| 20260506101553 | 57 | 60 | 0.0 | 6.0 | 0.00 | 0.13 | 0.01 | 68 | 1004.4 |
| 20260506100035 | 56 | 47 | 0.0 | 9.0 | 0.00 | 0.13 | 0.01 | 68 | 1004.5 |
| 20260506094536 | 56 | 87 | 1.0 | 14.0 | 0.01 | 0.13 | 0.01 | 70 | 1004.2 |
| 20260506093032 | 57 | 80 | 0.0 | 10.0 | 0.01 | 0.13 | 0.01 | 71 | 1004.4 |
| 20260506091530 | 56 | 76 | 0.0 | 8.0 | 0.01 | 0.13 | 0.01 | 75 | 1004.4 |
| 20260506090025 | 54 | 49 | 0.0 | 9.0 | 0.01 | 0.13 | 0.01 | 74 | 1004.2 |
| 20260506084527 | 52 | 80 | 0.0 | 6.0 | 0.00 | 0.13 | 0.00 | 77 | 1004.5 |
| 20260506083017 | 50 | 6 | 0.0 | 0.0 | 0.00 | 0.13 | 0.00 | 85 | 1004.6 |
| 20260506081508 | 49 | 6 | 0.0 | 0.0 | 0.00 | 0.13 | 0.00 | 86 | 1004.7 |
| 20260506073103 | 48 | 2 | 0.0 | 0.0 | 0.00 | 0.13 | 0.00 | 90 | 1004.9 |
| 20260506071607 | 47 | 2 | 0.0 | 0.0 | 0.00 | 0.13 | 0.00 | 90 | 1005.0 |
| 20260506061544 | 45 | 359 | 0.0 | 0.0 | 0.00 | 0.13 | 0.00 | 92 | 1005.1 |
| 20260506044540 | 43 | 359 | 0.0 | 0.0 | 0.00 | 0.13 | 0.00 | 93 | 1005.3 |
| 20260506043038 | 43 | 359 | 0.0 | 0.0 | 0.00 | 0.13 | 0.00 | 92 | 1005.5 |
| 20260506041546 | 43 | 359 | 0.0 | 0.0 | 0.00 | 0.13 | 0.00 | 92 | 1005.7 |
| 20260506040038 | 43 | 359 | 0.0 | 0.0 | 0.00 | 0.13 | 0.00 | 92 | 1005.8 |
| 20260506034508 | 44 | 359 | 0.0 | 0.0 | 0.00 | 0.13 | 0.00 | 92 | 1006.1 |
| 20260506033002 | 44 | 359 | 0.0 | 0.0 | 0.00 | 0.13 | 0.00 | 92 | 1006.3 |
| 20260506031502 | 44 | 359 | 0.0 | 0.0 | 0.00 | 0.13 | 0.00 | 93 | 1006.6 |
| 20260506030001 | 44 | 359 | 0.0 | 0.0 | 0.00 | 0.13 | 0.00 | 93 | 1006.6 |
| 20260506024600 | 44 | 359 | 0.0 | 0.0 | 0.00 | 0.13 | 0.00 | 93 | 1006.7 |
| 20260506023100 | 45 | 359 | 0.0 | 0.0 | 0.00 | 0.13 | 0.00 | 94 | 1006.8 |
| 20260506021558 | 45 | 359 | 0.0 | 0.0 | 0.00 | 0.13 | 0.00 | 94 | 1007.1 |
| 20260506020055 | 45 | 359 | 0.0 | 0.0 | 0.00 | 0.13 | 0.00 | 94 | 1007.3 |
| 20260506014557 | 45 | 359 | 0.0 | 0.0 | 0.00 | 0.13 | 0.00 | 93 | 1007.3 |
| 20260506013053 | 45 | 359 | 0.0 | 0.0 | 0.00 | 0.13 | 0.00 | 94 | 1007.5 |
| 20260506011551 | 45 | 359 | 0.0 | 0.0 | 0.00 | 0.13 | 0.00 | 94 | 1007.8 |
| 20260506010050 | 45 | 359 | 0.0 | 0.0 | 0.00 | 0.13 | 0.00 | 94 | 1007.8 |
| 20260506004554 | 44 | 359 | 0.0 | 0.0 | 0.00 | 0.13 | 0.00 | 93 | 1007.9 |
| 20260506003047 | 44 | 359 | 0.0 | 0.0 | 0.00 | 0.13 | 0.00 | 93 | 1007.9 |
| 20260506001606 | 44 | 359 | 0.0 | 0.0 | 0.00 | 0.13 | 0.00 | 93 | 1008.3 |
| 20260506000048 | 44 | 359 | 0.0 | 0.0 | 0.00 | 0.13 | 0.00 | 93 | 1008.4 |
| 20260505234549 | 44 | 359 | 0.0 | 1.0 | 0.00 | 0.13 | 0.00 | 93 | 1008.4 |
| 20260505233047 | 44 | 359 | 0.0 | 0.0 | 0.00 | 0.13 | 0.00 | 93 | 1008.3 |
| 20260505231550 | 44 | 359 | 0.0 | 4.0 | 0.00 | 0.13 | 0.00 | 93 | 1008.4 |
| 20260505230040 | 44 | 17 | 0.0 | 0.0 | 0.00 | 0.13 | 0.00 | 93 | 1008.5 |
| 20260505224541 | 44 | 17 | 0.0 | 0.0 | 0.00 | 0.13 | 0.00 | 93 | 1008.6 |
| 20260505223042 | 44 | 17 | 0.0 | 0.0 | 0.00 | 0.13 | 0.00 | 93 | 1008.8 |
| 20260505221541 | 43 | 17 | 0.0 | 0.0 | 0.00 | 0.13 | 0.00 | 92 | 1008.7 |
| 20260505220040 | 44 | 17 | 0.0 | 0.0 | 0.00 | 0.13 | 0.00 | 92 | 1008.7 |
| 20260505214554 | 44 | 29 | 0.0 | 0.0 | 0.00 | 0.13 | 0.13 | 92 | 1008.8 |
| 20260505213049 | 45 | 29 | 0.0 | 0.0 | 0.00 | 0.13 | 0.13 | 91 | 1009.1 |
| 20260505211533 | 45 | 31 | 0.0 | 0.0 | 0.00 | 0.13 | 0.13 | 92 | 1009.1 |
| 20260505210032 | 45 | 31 | 0.0 | 0.0 | 0.00 | 0.13 | 0.13 | 91 | 1009.0 |
| 20260505204536 | 46 | 31 | 0.0 | 0.0 | 0.00 | 0.13 | 0.13 | 91 | 1009.0 |
| 20260505203034 | 46 | 31 | 0.0 | 0.0 | 0.00 | 0.13 | 0.13 | 91 | 1009.0 |
| 20260505201544 | 46 | 31 | 0.0 | 0.0 | 0.02 | 0.13 | 0.13 | 91 | 1008.8 |
| 20260505200031 | 46 | 31 | 0.0 | 0.0 | 0.05 | 0.13 | 0.13 | 90 | 1008.8 |
| 20260505194530 | 46 | 31 | 0.0 | 0.0 | 0.06 | 0.13 | 0.13 | 90 | 1008.7 |
| 20260505193042 | 47 | 32 | 0.0 | 0.0 | 0.09 | 0.13 | 0.13 | 90 | 1008.8 |
| 20260505191528 | 47 | 32 | 0.0 | 0.0 | 0.09 | 0.11 | 0.11 | 90 | 1008.8 |